Location: Poughquag
(41.6090°N, 73.6820°W)
Time: 03:32:07
(UTC-04:00)

Vanguard 1 Rocket - Pass Details

Date: 05 June 2020
Orbit: 653 x 4224 km, 34.3° (Epoch: 06 July)

Event Time Altitude Azimuth Distance (km) Brightness Sun altitude
Rises 21:58:36 0° 218° (SW) 8,320 12.2 -14.0°
Reaches altitude 10° 22:04:49 10° 212° (SSW) 7,406 11.8 -14.8°
Maximum altitude 22:27:52 43° 151° (SSE) 4,587 10.4 -17.4°
Drops below altitude 10° 22:43:59 10° 87° (E) 5,377 11.0 -19.1°
Sets 22:47:33 0° 81° (E) 5,980 11.4 -19.4°
